| time (UTC) | temp F | wind direction | speed MPH | gust MPH | rain 1hr in | rain 24hr in | rain mn in | humidity % | barometer mb |
| 20260905063226 | 83 | 173 | 2.0 | 3.0 | 0.00 | 0.00 | 0.00 | 88 | 1011.1 |
| 20260905062225 | 83 | 172 | 2.0 | 3.0 | 0.00 | 0.00 | 0.00 | 87 | 1011.1 |
| 20260905061727 | 83 | 183 | 2.0 | 3.0 | 0.00 | 0.00 | 0.00 | 87 | 1011.0 |
| 20260905061225 | 83 | 149 | 2.0 | 3.0 | 0.00 | 0.00 | 0.00 | 87 | 1011.1 |
| 20260905060728 | 84 | 151 | 2.0 | 3.0 | 0.00 | 0.00 | 0.00 | 87 | 1011.1 |
| 20260905060225 | 84 | 141 | 2.0 | 3.0 | 0.00 | 0.00 | 0.00 | 87 | 1011.1 |
| 20260905054229 | 84 | 167 | 2.0 | 4.0 | 0.00 | 0.00 | 0.00 | 86 | 1011.0 |
| 20260905053712 | 84 | 132 | 2.0 | 4.0 | 0.00 | 0.00 | 0.00 | 86 | 1011.1 |
| 20260905053215 | 84 | 115 | 2.0 | 4.0 | 0.00 | 0.00 | 0.00 | 86 | 1011.2 |
| 20260905052216 | 84 | 121 | 2.0 | 3.0 | 0.00 | 0.00 | 0.00 | 86 | 1011.3 |
| 20260905051215 | 84 | 107 | 2.0 | 3.0 | 0.00 | 0.00 | 0.00 | 85 | 1011.3 |
| 20260905050713 | 84 | 135 | 2.0 | 3.0 | 0.00 | 0.00 | 0.00 | 85 | 1011.3 |
| 20260905050215 | 84 | 131 | 2.0 | 3.0 | 0.00 | 0.00 | 0.00 | 85 | 1011.2 |
| 20260905045713 | 85 | 134 | 2.0 | 4.0 | 0.00 | 0.00 | 0.00 | 85 | 1011.3 |
| 20260905044711 | 85 | 146 | 2.0 | 4.0 | 0.00 | 0.00 | 0.00 | 84 | 1011.3 |
| 20260905044210 | 85 | 168 | 2.0 | 6.0 | 0.00 | 0.00 | 0.00 | 84 | 1011.3 |
| 20260905043711 | 85 | 132 | 2.0 | 6.0 | 0.00 | 0.00 | 0.00 | 84 | 1011.3 |
| 20260905043215 | 85 | 155 | 2.0 | 4.0 | 0.00 | 0.00 | 0.00 | 84 | 1011.3 |
| 20260905042711 | 85 | 160 | 2.0 | 4.0 | 0.00 | 0.00 | 0.00 | 84 | 1011.4 |
| 20260905042210 | 85 | 153 | 2.0 | 6.0 | 0.00 | 0.00 | 0.00 | 83 | 1011.5 |
| 20260905041210 | 85 | 130 | 2.0 | 4.0 | 0.00 | 0.00 | 0.00 | 83 | 1011.5 |
| 20260905040210 | 85 | 172 | 2.0 | 4.0 | 0.00 | 0.00 | 0.00 | 83 | 1011.4 |
| 20260905035712 | 85 | 169 | 2.0 | 4.0 | 0.00 | 0.00 | 0.00 | 83 | 1011.4 |
| 20260905035210 | 85 | 108 | 2.0 | 4.0 | 0.00 | 0.00 | 0.00 | 83 | 1011.5 |
| 20260905034712 | 85 | 141 | 2.0 | 4.0 | 0.00 | 0.00 | 0.00 | 82 | 1011.6 |
| 20260905033702 | 85 | 127 | 2.0 | 5.0 | 0.00 | 0.00 | 0.00 | 82 | 1011.5 |
| 20260905033157 | 85 | 140 | 2.0 | 4.0 | 0.00 | 0.00 | 0.00 | 82 | 1011.4 |
| 20260905032659 | 85 | 143 | 2.0 | 4.0 | 0.00 | 0.00 | 0.00 | 82 | 1011.4 |
| 20260905032157 | 86 | 154 | 2.0 | 4.0 | 0.00 | 0.00 | 0.00 | 81 | 1011.4 |
| 20260905031659 | 86 | 112 | 2.0 | 7.0 | 0.00 | 0.00 | 0.00 | 81 | 1011.5 |
| 20260905031155 | 86 | 122 | 2.0 | 7.0 | 0.00 | 0.00 | 0.00 | 81 | 1011.5 |
| 20260905030657 | 86 | 161 | 2.0 | 6.0 | 0.00 | 0.00 | 0.00 | 81 | 1011.4 |
| 20260905030155 | 86 | 159 | 2.0 | 6.0 | 0.00 | 0.00 | 0.00 | 81 | 1011.4 |
| 20260905025657 | 86 | 128 | 2.0 | 6.0 | 0.00 | 0.00 | 0.00 | 80 | 1011.3 |
| 20260905024657 | 86 | 108 | 2.0 | 6.0 | 0.00 | 0.00 | 0.00 | 79 | 1011.0 |
| 20260905024155 | 86 | 56 | 2.0 | 6.0 | 0.00 | 0.00 | 0.00 | 79 | 1011.0 |
| 20260905023657 | 86 | 156 | 2.0 | 6.0 | 0.00 | 0.00 | 0.00 | 79 | 1011.0 |
| 20260905023156 | 86 | 127 | 2.0 | 5.0 | 0.00 | 0.00 | 0.00 | 79 | 1011.0 |
| 20260905022657 | 86 | 135 | 3.0 | 5.0 | 0.00 | 0.00 | 0.00 | 78 | 1011.0 |
| 20260905021654 | 86 | 125 | 2.0 | 7.0 | 0.00 | 0.00 | 0.00 | 78 | 1010.7 |
| 20260905020655 | 87 | 150 | 3.0 | 8.0 | 0.00 | 0.00 | 0.00 | 77 | 1010.4 |
| 20260905020153 | 87 | 114 | 3.0 | 7.0 | 0.00 | 0.00 | 0.00 | 76 | 1010.5 |
| 20260905015655 | 87 | 111 | 3.0 | 9.0 | 0.00 | 0.00 | 0.00 | 76 | 1010.3 |
| 20260905015153 | 87 | 137 | 3.0 | 11.0 | 0.00 | 0.00 | 0.00 | 76 | 1010.3 |
| 20260905014654 | 87 | 117 | 3.0 | 11.0 | 0.00 | 0.00 | 0.00 | 76 | 1010.2 |
| 20260905014153 | 87 | 138 | 3.0 | 6.0 | 0.00 | 0.00 | 0.00 | 75 | 1010.2 |
| 20260905013153 | 87 | 110 | 3.0 | 10.0 | 0.00 | 0.00 | 0.00 | 75 | 1010.0 |
| 20260905012655 | 87 | 147 | 3.0 | 8.0 | 0.00 | 0.00 | 0.00 | 76 | 1010.0 |
| 20260905012153 | 87 | 156 | 4.0 | 9.0 | 0.00 | 0.00 | 0.00 | 76 | 1010.0 |
| 20260905011150 | 87 | 166 | 4.0 | 11.0 | 0.00 | 0.00 | 0.00 | 76 | 1010.0 |
| 20260905010657 | 87 | 118 | 4.0 | 9.0 | 0.00 | 0.00 | 0.00 | 75 | 1009.9 |
| 20260905010152 | 88 | 144 | 4.0 | 11.0 | 0.00 | 0.00 | 0.00 | 74 | 1009.9 |
| 20260905005655 | 88 | 125 | 4.0 | 11.0 | 0.00 | 0.00 | 0.00 | 74 | 1010.0 |
| 20260905005150 | 88 | 122 | 4.0 | 10.0 | 0.00 | 0.00 | 0.00 | 72 | 1010.0 |
| 20260905004652 | 88 | 180 | 6.0 | 6.0 | 0.00 | 0.00 | 0.00 | 72 | 1009.9 |
| 20260905003938 | 88 | 112 | 4.0 | 9.0 | 0.00 | 0.00 | 0.00 | 72 | 1009.9 |
| 20260905003437 | 88 | 124 | 4.0 | 11.0 | 0.00 | 0.00 | 0.00 | 71 | 1009.7 |
| 20260905002438 | 89 | 113 | 5.0 | 12.0 | 0.00 | 0.00 | 0.00 | 70 | 1009.7 |
| 20260905001938 | 89 | 64 | 5.0 | 12.0 | 0.00 | 0.00 | 0.00 | 70 | 1009.6 |
| 20260905000935 | 89 | 188 | 4.0 | 10.0 | 0.00 | 0.00 | 0.00 | 69 | 1009.6 |
| 20260905000435 | 89 | 122 | 5.0 | 11.0 | 0.00 | 0.00 | 0.00 | 68 | 1009.5 |
| 20260904235933 | 90 | 121 | 5.0 | 11.0 | 0.00 | 0.00 | 0.00 | 67 | 1009.4 |
| 20260904235429 | 90 | 121 | 4.0 | 10.0 | 0.00 | 0.00 | 0.00 | 67 | 1009.3 |
| 20260904234929 | 91 | 131 | 4.0 | 9.0 | 0.00 | 0.00 | 0.00 | 66 | 1009.4 |
| 20260904234427 | 91 | 117 | 4.0 | 9.0 | 0.00 | 0.00 | 0.00 | 65 | 1009.4 |
| 20260904233926 | 91 | 99 | 5.0 | 11.0 | 0.00 | 0.00 | 0.00 | 65 | 1009.3 |
| 20260904233427 | 91 | 158 | 5.0 | 11.0 | 0.00 | 0.00 | 0.00 | 65 | 1009.3 |
| 20260904232926 | 91 | 116 | 5.0 | 10.0 | 0.00 | 0.00 | 0.00 | 64 | 1009.3 |
| 20260904232426 | 91 | 167 | 5.0 | 13.0 | 0.00 | 0.00 | 0.00 | 63 | 1009.3 |
| 20260904231926 | 91 | 111 | 6.0 | 13.0 | 0.00 | 0.00 | 0.00 | 65 | 1009.2 |
| 20260904230927 | 92 | 130 | 5.0 | 14.0 | 0.00 | 0.00 | 0.00 | 63 | 1009.2 |
| 20260904230427 | 92 | 80 | 5.0 | 14.0 | 0.00 | 0.00 | 0.00 | 63 | 1009.2 |
| 20260904225927 | 92 | 136 | 5.0 | 13.0 | 0.00 | 0.00 | 0.00 | 64 | 1009.1 |
| 20260904225426 | 92 | 148 | 5.0 | 11.0 | 0.00 | 0.00 | 0.00 | 64 | 1009.1 |
| 20260904224927 | 92 | 96 | 4.0 | 10.0 | 0.00 | 0.00 | 0.00 | 63 | 1009.2 |
| 20260904224427 | 92 | 157 | 5.0 | 12.0 | 0.00 | 0.00 | 0.00 | 62 | 1009.2 |
| 20260904223927 | 93 | 131 | 5.0 | 13.0 | 0.00 | 0.00 | 0.00 | 63 | 1009.1 |
| 20260904223427 | 93 | 120 | 5.0 | 13.0 | 0.00 | 0.00 | 0.00 | 61 | 1009.0 |
| 20260904222925 | 94 | 144 | 5.0 | 9.0 | 0.00 | 0.00 | 0.00 | 60 | 1009.0 |
| 20260904222424 | 94 | 110 | 5.0 | 11.0 | 0.00 | 0.00 | 0.00 | 60 | 1008.9 |
| 20260904221925 | 94 | 188 | 5.0 | 11.0 | 0.00 | 0.00 | 0.00 | 59 | 1008.9 |
| 20260904221425 | 94 | 150 | 5.0 | 11.0 | 0.00 | 0.00 | 0.00 | 59 | 1008.9 |
| 20260904220924 | 94 | 107 | 4.0 | 11.0 | 0.00 | 0.00 | 0.00 | 57 | 1008.9 |
| 20260904220425 | 94 | 124 | 5.0 | 11.0 | 0.00 | 0.00 | 0.00 | 58 | 1009.0 |
| 20260904215925 | 94 | 127 | 5.0 | 11.0 | 0.00 | 0.00 | 0.00 | 58 | 1008.9 |
| 20260904215425 | 95 | 121 | 4.0 | 12.0 | 0.00 | 0.00 | 0.00 | 58 | 1008.8 |
| 20260904214925 | 95 | 114 | 4.0 | 12.0 | 0.00 | 0.00 | 0.00 | 55 | 1008.9 |
| 20260904214425 | 95 | 96 | 5.0 | 9.0 | 0.00 | 0.00 | 0.00 | 56 | 1008.9 |
| 20260904213925 | 95 | 312 | 4.0 | 9.0 | 0.00 | 0.00 | 0.00 | 57 | 1008.9 |
| 20260904213426 | 95 | 131 | 4.0 | 10.0 | 0.00 | 0.00 | 0.00 | 57 | 1009.0 |
| 20260904212922 | 95 | 80 | 4.0 | 10.0 | 0.00 | 0.00 | 0.00 | 55 | 1008.9 |
| 20260904212422 | 95 | 102 | 4.0 | 11.0 | 0.00 | 0.00 | 0.00 | 56 | 1009.0 |
| 20260904211921 | 95 | 132 | 4.0 | 11.0 | 0.00 | 0.00 | 0.00 | 55 | 1009.0 |
| 20260904211421 | 96 | 149 | 4.0 | 12.0 | 0.00 | 0.00 | 0.00 | 55 | 1009.1 |
| 20260904210920 | 96 | 152 | 4.0 | 12.0 | 0.00 | 0.00 | 0.00 | 54 | 1009.2 |
| 20260904210421 | 96 | 190 | 5.0 | 11.0 | 0.00 | 0.00 | 0.00 | 53 | 1009.2 |
| 20260904204921 | 96 | 81 | 4.0 | 11.0 | 0.00 | 0.00 | 0.00 | 54 | 1009.1 |
| 20260904204422 | 96 | 168 | 4.0 | 11.0 | 0.00 | 0.00 | 0.00 | 55 | 1009.1 |
| 20260904203921 | 96 | 130 | 5.0 | 11.0 | 0.00 | 0.00 | 0.00 | 56 | 1009.1 |
| 20260904203417 | 96 | 107 | 5.0 | 11.0 | 0.00 | 0.00 | 0.00 | 57 | 1009.1 |
| 20260904202916 | 97 | 163 | 4.0 | 11.0 | 0.00 | 0.00 | 0.00 | 56 | 1009.1 |
| 20260904202415 | 97 | 131 | 4.0 | 11.0 | 0.00 | 0.00 | 0.00 | 55 | 1009.1 |
| 20260904201916 | 97 | 85 | 5.0 | 11.0 | 0.00 | 0.00 | 0.00 | 56 | 1009.2 |
| 20260904201415 | 97 | 81 | 6.0 | 12.0 | 0.00 | 0.00 | 0.00 | 55 | 1009.2 |
| 20260904200916 | 98 | 105 | 5.0 | 12.0 | 0.00 | 0.00 | 0.00 | 54 | 1009.2 |
| 20260904195912 | 98 | 187 | 4.0 | 10.0 | 0.00 | 0.00 | 0.00 | 53 | 1009.3 |
| 20260904195412 | 98 | 155 | 3.0 | 8.0 | 0.00 | 0.00 | 0.00 | 52 | 1009.3 |
| 20260904194912 | 98 | 129 | 3.0 | 7.0 | 0.00 | 0.00 | 0.00 | 50 | 1009.3 |
| 20260904194411 | 98 | 93 | 3.0 | 7.0 | 0.00 | 0.00 | 0.00 | 52 | 1009.5 |
| 20260904193912 | 98 | 141 | 3.0 | 7.0 | 0.00 | 0.00 | 0.00 | 50 | 1009.4 |
| 20260904193412 | 98 | 174 | 3.0 | 8.0 | 0.00 | 0.00 | 0.00 | 51 | 1009.5 |
| 20260904192913 | 98 | 132 | 3.0 | 8.0 | 0.00 | 0.00 | 0.00 | 51 | 1009.6 |
| 20260904192411 | 98 | 174 | 3.0 | 9.0 | 0.00 | 0.00 | 0.00 | 51 | 1009.6 |
| 20260904191912 | 98 | 204 | 4.0 | 9.0 | 0.00 | 0.00 | 0.00 | 51 | 1009.6 |
| 20260904191411 | 98 | 339 | 3.0 | 9.0 | 0.00 | 0.00 | 0.00 | 49 | 1009.7 |
| 20260904190913 | 98 | 84 | 3.0 | 11.0 | 0.00 | 0.00 | 0.00 | 49 | 1009.7 |
| 20260904190411 | 99 | 128 | 3.0 | 11.0 | 0.00 | 0.00 | 0.00 | 49 | 1009.8 |
| 20260904185912 | 98 | 144 | 3.0 | 7.0 | 0.00 | 0.00 | 0.00 | 49 | 1009.7 |
| 20260904184410 | 98 | 186 | 4.0 | 9.0 | 0.00 | 0.00 | 0.00 | 49 | 1010.0 |
| 20260904183909 | 97 | 144 | 4.0 | 12.0 | 0.00 | 0.00 | 0.00 | 50 | 1010.0 |
| 20260904183410 | 97 | 77 | 4.0 | 12.0 | 0.00 | 0.00 | 0.00 | 50 | 1010.0 |
| 20260904181910 | 98 | 245 | 4.0 | 11.0 | 0.00 | 0.00 | 0.00 | 50 | 1010.3 |
| 20260904181409 | 98 | 166 | 3.0 | 8.0 | 0.00 | 0.00 | 0.00 | 48 | 1010.3 |
| 20260904180410 | 98 | 118 | 3.0 | 9.0 | 0.00 | 0.00 | 0.00 | 48 | 1010.5 |
| 20260904175410 | 97 | 199 | 3.0 | 9.0 | 0.00 | 0.00 | 0.00 | 49 | 1010.5 |
| 20260904174910 | 97 | 122 | 4.0 | 9.0 | 0.00 | 0.00 | 0.00 | 49 | 1010.6 |
| 20260904174410 | 97 | 151 | 4.0 | 9.0 | 0.00 | 0.00 | 0.00 | 49 | 1010.7 |
| 20260904173912 | 97 | 182 | 3.0 | 10.0 | 0.00 | 0.00 | 0.00 | 50 | 1010.7 |
| 20260904173410 | 96 | 118 | 4.0 | 10.0 | 0.00 | 0.00 | 0.00 | 50 | 1010.9 |
| 20260904172404 | 96 | 139 | 3.0 | 9.0 | 0.00 | 0.00 | 0.00 | 51 | 1011.0 |
| 20260904171904 | 96 | 132 | 4.0 | 10.0 | 0.00 | 0.00 | 0.00 | 51 | 1011.1 |
| 20260904170905 | 96 | 145 | 3.0 | 7.0 | 0.00 | 0.00 | 0.00 | 51 | 1011.2 |
| 20260904164901 | 95 | 140 | 4.0 | 11.0 | 0.00 | 0.00 | 0.00 | 53 | 1011.3 |
| 20260904164402 | 95 | 136 | 4.0 | 8.0 | 0.00 | 0.00 | 0.00 | 54 | 1011.4 |
| 20260904163902 | 94 | 123 | 4.0 | 8.0 | 0.00 | 0.00 | 0.00 | 54 | 1011.5 |
| 20260904163402 | 94 | 188 | 3.0 | 6.0 | 0.00 | 0.00 | 0.00 | 54 | 1011.5 |
| 20260904162901 | 94 | 106 | 3.0 | 7.0 | 0.00 | 0.00 | 0.00 | 56 | 1011.5 |
| 20260904161902 | 93 | 198 | 3.0 | 10.0 | 0.00 | 0.00 | 0.00 | 57 | 1011.6 |
| 20260904161402 | 93 | 191 | 4.0 | 10.0 | 0.00 | 0.00 | 0.00 | 57 | 1011.5 |
| 20260904160903 | 92 | 182 | 4.0 | 10.0 | 0.00 | 0.00 | 0.00 | 57 | 1011.5 |
| 20260904160358 | 92 | 115 | 5.0 | 13.0 | 0.00 | 0.00 | 0.00 | 58 | 1011.5 |
| 20260904155914 | 92 | 164 | 5.0 | 13.0 | 0.00 | 0.00 | 0.00 | 60 | 1011.5 |
| 20260904155358 | 92 | 94 | 4.0 | 10.0 | 0.00 | 0.00 | 0.00 | 60 | 1011.5 |
| 20260904154900 | 92 | 159 | 3.0 | 10.0 | 0.00 | 0.00 | 0.00 | 59 | 1011.5 |
| 20260904154357 | 91 | 106 | 3.0 | 11.0 | 0.00 | 0.00 | 0.00 | 61 | 1011.5 |
| 20260904153900 | 91 | 155 | 4.0 | 11.0 | 0.00 | 0.00 | 0.00 | 63 | 1011.5 |
| 20260904153359 | 90 | 195 | 4.0 | 12.0 | 0.00 | 0.00 | 0.00 | 64 | 1011.4 |
| 20260904152901 | 90 | 217 | 5.0 | 12.0 | 0.00 | 0.00 | 0.00 | 66 | 1011.4 |
| 20260904151900 | 89 | 136 | 5.0 | 12.0 | 0.00 | 0.00 | 0.00 | 68 | 1011.4 |
| 20260904151358 | 89 | 160 | 5.0 | 12.0 | 0.00 | 0.00 | 0.00 | 69 | 1011.3 |
| 20260904150901 | 89 | 179 | 4.0 | 12.0 | 0.00 | 0.00 | 0.00 | 70 | 1011.3 |
| 20260904150359 | 88 | 154 | 5.0 | 11.0 | 0.00 | 0.00 | 0.00 | 71 | 1011.3 |
| 20260904145858 | 88 | 207 | 5.0 | 11.0 | 0.00 | 0.00 | 0.00 | 73 | 1011.3 |
| 20260904145358 | 88 | 170 | 4.0 | 10.0 | 0.00 | 0.00 | 0.00 | 74 | 1011.3 |
| 20260904144855 | 87 | 157 | 4.0 | 10.0 | 0.00 | 0.00 | 0.00 | 75 | 1011.4 |
| 20260904144356 | 87 | 112 | 5.0 | 13.0 | 0.00 | 0.00 | 0.00 | 76 | 1011.4 |
| 20260904143855 | 87 | 179 | 5.0 | 13.0 | 0.00 | 0.00 | 0.00 | 76 | 1011.3 |
| 20260904143355 | 87 | 179 | 6.0 | 12.0 | 0.00 | 0.00 | 0.00 | 78 | 1011.3 |
| 20260904142856 | 87 | 188 | 5.0 | 12.0 | 0.00 | 0.00 | 0.00 | 78 | 1011.2 |
| 20260904142356 | 87 | 126 | 4.0 | 8.0 | 0.00 | 0.00 | 0.00 | 78 | 1011.2 |
| 20260904141856 | 87 | 175 | 3.0 | 8.0 | 0.00 | 0.00 | 0.00 | 78 | 1011.2 |
| 20260904141355 | 87 | 137 | 3.0 | 7.0 | 0.00 | 0.00 | 0.00 | 79 | 1011.2 |
| 20260904140856 | 87 | 182 | 3.0 | 7.0 | 0.00 | 0.00 | 0.00 | 79 | 1011.3 |
| 20260904140356 | 87 | 156 | 3.0 | 7.0 | 0.00 | 0.00 | 0.00 | 79 | 1011.3 |
| 20260904135856 | 86 | 154 | 3.0 | 6.0 | 0.00 | 0.00 | 0.00 | 81 | 1011.2 |
| 20260904135357 | 86 | 120 | 2.0 | 5.0 | 0.00 | 0.00 | 0.00 | 82 | 1011.2 |
| 20260904134856 | 86 | 154 | 2.0 | 6.0 | 0.00 | 0.00 | 0.00 | 82 | 1011.2 |
| 20260904134343 | 85 | 127 | 3.0 | 6.0 | 0.00 | 0.00 | 0.00 | 84 | 1011.2 |
| 20260904133843 | 85 | 150 | 3.0 | 4.0 | 0.00 | 0.00 | 0.00 | 83 | 1011.2 |
| 20260904133327 | 85 | 144 | 3.0 | 4.0 | 0.00 | 0.00 | 0.00 | 84 | 1011.1 |
| 20260904132326 | 85 | 140 | 3.0 | 4.0 | 0.00 | 0.00 | 0.00 | 84 | 1011.2 |
| 20260904131828 | 84 | 147 | 3.0 | 4.0 | 0.00 | 0.00 | 0.00 | 85 | 1011.1 |
| 20260904131327 | 83 | 165 | 3.0 | 4.0 | 0.00 | 0.00 | 0.00 | 86 | 1011.2 |
| 20260904130828 | 83 | 130 | 3.0 | 4.0 | 0.00 | 0.00 | 0.00 | 86 | 1011.2 |
| 20260904130326 | 83 | 124 | 3.0 | 4.0 | 0.00 | 0.00 | 0.00 | 87 | 1011.1 |
| 20260904125828 | 82 | 169 | 3.0 | 4.0 | 0.00 | 0.00 | 0.00 | 87 | 1011.0 |
| 20260904125327 | 82 | 109 | 3.0 | 4.0 | 0.00 | 0.00 | 0.00 | 88 | 1011.0 |
| 20260904124327 | 82 | 150 | 3.0 | 4.0 | 0.00 | 0.00 | 0.00 | 88 | 1010.9 |
| 20260904123825 | 82 | 103 | 3.0 | 4.0 | 0.00 | 0.00 | 0.00 | 88 | 1010.9 |
| 20260904123326 | 82 | 171 | 3.0 | 4.0 | 0.00 | 0.00 | 0.00 | 88 | 1010.8 |
| 20260904122827 | 82 | 124 | 3.0 | 4.0 | 0.00 | 0.00 | 0.00 | 89 | 1010.7 |
| 20260904121756 | 82 | 165 | 3.0 | 5.0 | 0.00 | 0.00 | 0.00 | 89 | 1010.5 |
| 20260904121256 | 82 | 155 | 3.0 | 6.0 | 0.00 | 0.00 | 0.00 | 89 | 1010.5 |
| 20260904120256 | 82 | 146 | 3.0 | 4.0 | 0.00 | 0.00 | 0.00 | 89 | 1010.4 |
| 20260904115256 | 82 | 162 | 2.0 | 4.0 | 0.00 | 0.00 | 0.00 | 89 | 1010.4 |
| 20260904114756 | 82 | 131 | 2.0 | 4.0 | 0.00 | 0.00 | 0.00 | 89 | 1010.3 |
| 20260904114256 | 82 | 155 | 2.0 | 4.0 | 0.00 | 0.00 | 0.00 | 89 | 1010.3 |
| 20260904113757 | 82 | 158 | 2.0 | 4.0 | 0.00 | 0.00 | 0.00 | 89 | 1010.4 |
| 20260904113257 | 82 | 172 | 2.0 | 4.0 | 0.00 | 0.00 | 0.00 | 89 | 1010.4 |
| 20260904112757 | 82 | 164 | 2.0 | 3.0 | 0.00 | 0.00 | 0.00 | 89 | 1010.5 |
| 20260904112257 | 82 | 158 | 3.0 | 4.0 | 0.00 | 0.00 | 0.00 | 89 | 1010.4 |
| 20260904111756 | 82 | 159 | 3.0 | 4.0 | 0.00 | 0.00 | 0.00 | 89 | 1010.4 |
| 20260904111257 | 82 | 152 | 3.0 | 5.0 | 0.00 | 0.00 | 0.00 | 89 | 1010.5 |
| 20260904110240 | 81 | 145 | 3.0 | 4.0 | 0.00 | 0.00 | 0.00 | 89 | 1010.4 |
| 20260904105241 | 82 | 153 | 2.0 | 4.0 | 0.00 | 0.00 | 0.00 | 89 | 1010.3 |
| 20260904104742 | 82 | 155 | 3.0 | 4.0 | 0.00 | 0.00 | 0.00 | 89 | 1010.2 |
| 20260904104241 | 82 | 154 | 2.0 | 4.0 | 0.00 | 0.00 | 0.00 | 89 | 1010.2 |
| 20260904103743 | 82 | 108 | 2.0 | 4.0 | 0.00 | 0.00 | 0.00 | 89 | 1010.2 |
| 20260904103241 | 82 | 158 | 2.0 | 4.0 | 0.00 | 0.00 | 0.00 | 89 | 1010.2 |
| 20260904102241 | 82 | 149 | 2.0 | 3.0 | 0.00 | 0.00 | 0.00 | 89 | 1010.2 |
| 20260904101743 | 81 | 158 | 2.0 | 4.0 | 0.00 | 0.00 | 0.00 | 89 | 1010.1 |
| 20260904101241 | 81 | 152 | 2.0 | 4.0 | 0.00 | 0.00 | 0.00 | 89 | 1010.2 |
| 20260904100744 | 81 | 126 | 2.0 | 3.0 | 0.00 | 0.00 | 0.00 | 89 | 1010.1 |
| 20260904100231 | 81 | 169 | 2.0 | 4.0 | 0.00 | 0.00 | 0.00 | 89 | 1010.1 |
| 20260904095730 | 81 | 147 | 2.0 | 4.0 | 0.00 | 0.00 | 0.00 | 89 | 1010.1 |
| 20260904095228 | 81 | 164 | 2.0 | 4.0 | 0.00 | 0.00 | 0.00 | 89 | 1010.1 |
| 20260904094730 | 81 | 160 | 2.0 | 4.0 | 0.00 | 0.00 | 0.00 | 89 | 1010.1 |
| 20260904094229 | 81 | 153 | 2.0 | 4.0 | 0.00 | 0.00 | 0.00 | 89 | 1010.0 |
| 20260904093730 | 82 | 156 | 2.0 | 4.0 | 0.00 | 0.00 | 0.00 | 89 | 1010.1 |
| 20260904093228 | 82 | 147 | 2.0 | 5.0 | 0.00 | 0.00 | 0.00 | 89 | 1010.1 |
| 20260904092731 | 82 | 141 | 2.0 | 5.0 | 0.00 | 0.00 | 0.00 | 89 | 1010.0 |
| 20260904092229 | 82 | 141 | 2.0 | 4.0 | 0.00 | 0.00 | 0.00 | 88 | 1010.1 |
| 20260904091730 | 82 | 162 | 2.0 | 4.0 | 0.00 | 0.00 | 0.00 | 88 | 1010.1 |
| 20260904091228 | 82 | 168 | 2.0 | 4.0 | 0.00 | 0.00 | 0.00 | 88 | 1010.1 |
| 20260904090727 | 82 | 160 | 2.0 | 3.0 | 0.00 | 0.00 | 0.00 | 88 | 1010.1 |
| 20260904090225 | 82 | 186 | 2.0 | 3.0 | 0.00 | 0.00 | 0.00 | 88 | 1010.1 |
| 20260904085729 | 82 | 133 | 2.0 | 3.0 | 0.00 | 0.00 | 0.00 | 88 | 1010.1 |
| 20260904085227 | 82 | 160 | 2.0 | 4.0 | 0.00 | 0.00 | 0.00 | 88 | 1010.1 |
| 20260904084727 | 82 | 183 | 2.0 | 4.0 | 0.00 | 0.00 | 0.00 | 88 | 1010.1 |
| 20260904084213 | 82 | 195 | 2.0 | 4.0 | 0.00 | 0.00 | 0.00 | 88 | 1010.1 |
| 20260904083714 | 82 | 220 | 2.0 | 4.0 | 0.00 | 0.00 | 0.00 | 88 | 1010.1 |
| 20260904083212 | 82 | 196 | 2.0 | 4.0 | 0.00 | 0.00 | 0.00 | 88 | 1010.2 |
| 20260904082715 | 82 | 182 | 2.0 | 4.0 | 0.00 | 0.00 | 0.00 | 88 | 1010.1 |
| 20260904082212 | 82 | 169 | 2.0 | 3.0 | 0.00 | 0.00 | 0.00 | 88 | 1010.1 |
| 20260904081213 | 82 | 172 | 1.0 | 3.0 | 0.00 | 0.00 | 0.00 | 88 | 1010.1 |
| 20260904080715 | 82 | 154 | 1.0 | 2.0 | 0.00 | 0.00 | 0.00 | 87 | 1010.2 |
| 20260904080216 | 82 | 160 | 1.0 | 2.0 | 0.00 | 0.00 | 0.00 | 87 | 1010.3 |
| 20260904075714 | 82 | 177 | 1.0 | 2.0 | 0.00 | 0.00 | 0.00 | 87 | 1010.3 |
| 20260904075214 | 82 | 177 | 1.0 | 2.0 | 0.00 | 0.00 | 0.00 | 87 | 1010.4 |
| 20260904074715 | 82 | 158 | 1.0 | 3.0 | 0.00 | 0.00 | 0.00 | 87 | 1010.4 |
| 20260904074213 | 82 | 178 | 1.0 | 3.0 | 0.00 | 0.00 | 0.00 | 87 | 1010.5 |
| 20260904073700 | 82 | 149 | 1.0 | 3.0 | 0.00 | 0.00 | 0.00 | 87 | 1010.5 |
| 20260904072700 | 82 | 156 | 1.0 | 2.0 | 0.00 | 0.00 | 0.00 | 87 | 1010.6 |
| 20260904071645 | 83 | 168 | 0.0 | 1.0 | 0.00 | 0.00 | 0.00 | 86 | 1010.6 |
| 20260904071148 | 83 | 0 | 0.0 | 1.0 | 0.00 | 0.00 | 0.00 | 86 | 1010.7 |
| 20260904070631 | 83 | 0 | 0.0 | 2.0 | 0.00 | 0.00 | 0.00 | 86 | 1010.8 |
| 20260904070133 | 83 | 165 | 0.0 | 2.0 | 0.00 | 0.00 | 0.00 | 86 | 1010.8 |
| 20260904065139 | 83 | 145 | 1.0 | 2.0 | 0.00 | 0.00 | 0.00 | 86 | 1010.8 |
| 20260904064632 | 83 | 144 | 0.0 | 2.0 | 0.00 | 0.00 | 0.00 | 86 | 1010.8 |
| 20260904064131 | 83 | 103 | 0.0 | 2.0 | 0.00 | 0.00 | 0.00 | 86 | 1010.8 |